User: anonymous   Login
Location: Hale Hill Observatory
(39.3806°N, 86.8431°W)
Time: 11:23:33
(UTC-04:00)
Language:

Cosmos 990 Rocket - Orbit

View from above orbital plane
View from above orbital plane
View from above satellite
View from above satellite

Ground track
Ground track

The orbit data is extracted from the following two-line orbital elements,

1 10677U 78019B   15188.10437581  .00000059  00000-0  27189-4 0  9993
2 10677 074.0362 175.0661 0014120 061.8751 298.3828 14.39872791960148
Epoch (UTC): 07 July 2015 02:30:18
Eccentricity: 0.0014120
inclination: 74.0362°
perigee height: 749 km
apogee height: 769 km
right ascension of ascending node: 175.0661°
argument of perigee: 61.8751°
revolutions per day: 14.39872791
mean anomaly at epoch: 298.3828°
orbit number at epoch: 96014

The dashed part of the orbit path shows where the satellite is in the earth's shadow,  

DLR